Regional Weather Roundup
Issued by NWS

Home | Current Version | Previous Version | Graphics & Text | Print | Product List | Glossary Off
Versions: 1 2 3 4 5 6 7 8 9 10 11 12 13 14 15 16 17 18 19 20 21 22 23 24 25 26 27 28 29 30 31 32 33 34 35 36 37 38 39 40 41 42 43 44 45 46 47 48 49 50

482
ASUS43 KMKX 141410
RWRWI

WISCONSIN REGIONAL WEATHER ROUNDUP
NATIONAL WEATHER SERVICE MILWAUKEE/SULLIVAN WI
800 AM CST SUN FEB 14 2016

NOTE: "FAIR" INDICATES FEW OR NO CLOUDS BELOW 12,000 FEET WITH NO
SIGNIFICANT WEATHER AND/OR OBSTRUCTIONS TO VISIBILITY.

WIZ001-002-006>008-014>016-023>028-141500-
NORTHWEST WISCONSIN

CITY           SKY/WX    TMP DP  RH WIND       PRES   REMARKS
SUPERIOR ARPT  CLOUDY     3  -7  64 NE3       30.14F
ASHLAND        CLOUDY   -13 -18  78 CALM      30.17F
HAYWARD        CLOUDY     1 -12  54 E6        30.11F WCI -10
SIREN          LGT SNOW   7   0  71 SE5       30.10S WCI  -2
CUMBERLAND     LGT SNOW   5  -8  56 SE8       30.09S WCI  -8
RICE LAKE      CLOUDY     6  -6  58 SE12      30.13S WCI  -9
CHETEK         CLOUDY     6  -6  59 SE9       30.13F WCI  -8
LADYSMITH      CLOUDY    -3 -12  63 E10       30.15F WCI -19
EAU CLAIRE     CLOUDY     5  -7  57 SE9       30.14F WCI  -9
MENOMONIE      CLOUDY     8  -4  59 E8        30.14S WCI  -5
NEW RICHMOND   FLURRIES   8  -2  62 SE8       30.08F WCI  -4
OSCEOLA        LGT SNOW   9   0  68 SE9       30.11F WCI  -5
$$

WIZ003>005-009-010-017-018-141500-
NORTH CENTRAL WISCONSIN

CITY           SKY/WX    TMP DP  RH WIND       PRES   REMARKS
MANITOWISH WTR CLOUDY    -5 -13  68 SE6       30.14F WCI -17
ARBOR VITAE    CLOUDY    -9 -15  74 SE5       30.15F WCI -20
WOODRUFF       CLOUDY    -9 -15  74 SE5       30.15F WCI -20
RHINELANDER    CLOUDY   -12 -17  78 E3        30.17F
EAGLE RIVER    CLOUDY   -17 -24  68 CALM      30.16F
LAND O LAKES   CLOUDY   -20 -26  74 CALM      30.17F
PHILLIPS       CLOUDY   -12 -18  74 SE5       30.13F WCI -24
TOMAHAWK       CLOUDY   -20 -26  72 CALM      30.18F
MEDFORD        CLOUDY    -4 -13  65 SE7       30.13F WCI -18
MERRILL        CLOUDY   -17 -22  74 CALM      30.21F
$$

WIZ029-030-035-036-043>047-141500-
CENTRAL WISCONSIN

CITY           SKY/WX    TMP DP  RH WIND       PRES   REMARKS
WAUSAU         CLOUDY    -6 -12  75 SE7       30.21F WCI -20
MOSINEE        CLEAR     -6 -11  77 E8        30.21F WCI -21
MARSHFIELD     CLOUDY    -2 -13  59 E8        30.16F WCI -17
STEVENS POINT  CLOUDY    -5 -13  69 E6        30.23F WCI -17
WAUPACA        CLOUDY   -11 -17  75 CALM      30.28F
WAUTOMA        CLOUDY   -11 -18  71 CALM      30.27F
WISC RAPIDS    CLOUDY     0 -11  59 E10       30.22F WCI -16
CAMP DOUGLAS   MOCLDY     5  -2  72 SE8       30.18F WCI  -8
$$

WIZ011>013-019>022-031-037>040-048>050-141500-
NORTHEAST WISCONSIN

CITY           SKY/WX    TMP DP  RH WIND       PRES   REMARKS
ANTIGO         CLOUDY    -5 -12  70 SE8       30.20F WCI -20
SHAWANO        CLOUDY    -8 -13  75 CALM      30.31F
OCONTO         CLOUDY   -13 -18  79 CALM      30.34F
STURGEON BAY   CLOUDY     1  -6  71 CALM      30.34F
GREEN BAY      CLOUDY    -7 -14  71 CALM      30.32F
MANITOWOC      FLURRIES  -1  -6  79 CALM      30.34F
APPLETON       PTCLDY     1  -9  60 VRB3      30.27F
CLINTONVILLE   CLOUDY    -9 -17  70 NE5       30.30F WCI -21
OSHKOSH        CLOUDY    -3  -8  79 CALM      30.28F
$$

WIZ032>034-041-042-053>061-141500-
SOUTHWEST WISCONSIN

CITY           SKY/WX    TMP DP  RH WIND       PRES   REMARKS
LA CROSSE      CLOUDY    12   1  61 SE9       30.17F WCI   0
SPARTA         CLOUDY    10   0  63 E8        30.18F WCI  -2
VIROQUA        CLOUDY     9   2  71 SE13G18   30.11F WCI  -6
BOSCOBEL       CLOUDY    11   4  73 CALM      30.19F
PRAIRIE DU CHI MIX PCPN  14   7  72 E10       30.16F WCI   2
PLATTEVILLE    CLOUDY    14   9  79 SE17      30.15F WCI  -3
$$

WIZ056-057-062-063-064-067-068-141500-
SOUTH CENTRAL WISCONSIN

CITY           SKY/WX    TMP DP  RH WIND       PRES   REMARKS
REEDSBURG      CLOUDY     8  -1  65 E6        30.19F WCI  -2
BARABOO/DELLS  CLOUDY     8  -2  64 E10       30.20F WCI  -7
LONE ROCK      CLOUDY    12   3  67 E9        30.21F WCI   0
MINERAL POINT  FLURRIES  14   7  73 SE17      30.14F WCI  -3
MADISON        CLOUDY    11   0  61 SE12      30.23F WCI  -3
MIDDLETON      CLOUDY    14   3  63 SE14G20   30.21F WCI  -1
WATERTOWN      CLOUDY    10  -1  59 SE9       30.26F WCI  -3
MONROE         CLOUDY    14   5  67 SE16G22   30.19F WCI  -2
JANESVILLE     CLOUDY    16   3  57 SE13      30.24F WCI   2
$$

WIZ051-052-058>065-066-070>072-141500-
SOUTHEAST WISCONSIN

CITY           SKY/WX    TMP DP  RH WIND       PRES   REMARKS
MILWAUKEE      CLOUDY    11   0  61 S9        30.31F WCI  -2
WAUKESHA       MOSUNNY    9  -8  47 SE8       30.30F WCI  -4
MILWAUKEE/TIMM MOSUNNY    7  -2  66 CALM      30.33F
RACINE         CLOUDY    17   6  62 S13       30.33F WCI   4
BURLINGTON     CLOUDY    10   1  69 SE9       30.29F WCI  -4
KENOSHA        MOSUNNY   13   4  67 S6        30.31F WCI   4
FOND DU LAC    CLOUDY    -1  -8  72 CALM      30.29F
SHEBOYGAN      FLURRIES   4  -1  80 CALM      30.31F
WEST BEND      CLOUDY     0  -8  71 CALM      30.29F
JUNEAU         CLOUDY     5  -5  63 E8        30.27F WCI  -9
$$

LSZ147-162-141500-
LAKE SUPERIOR

STATION/POSITION TIME  TEMP    WIND        PRES    WAVE
                       AIR SEA DIR/SP/G            HT/PER
                 (UTC) (F)     (DEG/KT/KT) (MB)    (FT/S)
DEVILS ISLAND    1400    6     170/ 10/ 13 1023.7F
SAXON HARBOR     1340  -16                 1022.0F
$$

LMZ867-665-643>646-141500-
LAKE MICHIGAN

STATION/POSITION TIME  TEMP    WIND        PRES    WAVE
                       AIR SEA DIR/SP/G            HT/PER
                 (UTC) (F)     (DEG/KT/KT) (MB)    (FT/S)
CHAMBERS ISLAND  1300   -3     190/  2/  3 1027.4
SISTER BAY       1319    1        CALM       N/A
ALGOMA LAKESHORE 1326             CALM       N/A
KEWAUNEE LAKESHO 1300   -5     300/  5/  7 1027.0F
SHEBOYGAN LAKESH 1400   10     280/  2/  3 1028.6F
PORT WASHINGTON  1300    9     290/  4/  6 1028.4F
MILWAUKEE LAKESH 1310   14     200/  9/ 11   N/A
KENOSHA   LAKESH 1400   18     170/ 21/ 27 1026.1F
$$

TC  - TEMPERATURE IN CELSIUS
VSB - VISIBILITY IN STATUTE MILES
WCI - WIND CHILL INDEX
HX  - HEAT INDEX





USA.gov is the U.S. government's official web portal to all federal, state and local government web resources and services.